EHI
0 0 0 0 0 0 0 0 0 0 0 0 1 3 5 7 8 10 13 17 19 21 27 34 37 35 34 35 35 36 36 35 33 29 24 20 17 16 15 13 11 10 10 10
0 0 0 0 0 0 0 0 0 0 0 0 1 3 4 5 7 10 13 16 19 22 26 31 34 34 35 35 33 33 34 34 33 30 25 20 17 15 13 12 10 10 10 11
0 0 0 0 0 0 0 0 0 0 0 0 1 2 2 2 5 9 13 14 18 23 25 28 32 34 35 33 30 29 30 31 31 31 27 21 17 14 12 10 10 10 10 11
0 0 0 0 0 0 0 0 0 0 0 0 1 1 1 2 5 9 12 13 17 22 24 28 32 34 33 30 27 28 28 28 29 30 28 23 18 13 11 10 10 9 9 8
0 0 0 0 0 0 0 0 0 0 0 0 0 0 1 3 6 9 11 13 18 22 26 30 33 34 32 30 29 30 30 30 29 28 26 22 16 11 10 9 9 9 7 7
0 0 0 0 0 0 0 0 0 0 0 0 0 0 1 4 7 9 10 14 19 24 28 32 35 35 34 34 34 33 31 30 30 27 22 18 13 9 8 9 9 7 7 6
0 0 0 0 0 0 0 0 0 0 0 0 0 1 2 4 8 12 14 17 19 23 30 35 37 36 35 35 36 35 32 30 29 25 21 18 13 9 8 8 7 7 6 6
0 0 0 0 0 0 0 0 0 0 0 0 0 1 3 6 12 17 19 19 19 22 29 35 37 36 36 37 37 36 33 30 27 25 22 20 15 11 8 7 7 7 7 7
0 0 0 0 0 0 0 0 0 0 0 0 0 2 5 8 14 20 20 18 17 20 27 33 35 36 37 39 37 34 31 28 26 25 23 19 15 10 8 7 7 8 8 9
0 0 0 0 0 0 0 0 0 0 0 0 0 2 4 7 12 16 15 13 14 18 25 30 33 34 34 36 34 30 27 24 23 23 22 17 13 9 8 8 9 9 9 10
0 0 0 0 0 0 0 0 0 0 0 0 0 0 1 4 7 9 9 9 10 16 22 27 29 30 31 32 30 26 22 21 21 21 20 17 12 10 8 8 8 9 9 9
0 0 0 0 0 0 0 0 0 0 0 0 0 0 1 4 6 8 9 9 11 14 18 22 25 28 31 30 27 23 19 18 18 19 19 17 14 11 10 8 7 7 7 8
0 0 0 0 0 0 0 0 0 0 0 1 1 1 4 6 7 8 9 11 13 14 16 20 23 26 29 29 26 22 18 16 16 17 18 16 14 12 11 9 7 5 5 6
0 0 0 0 0 0 0 0 0 0 1 2 2 3 5 7 8 8 9 11 15 17 18 20 21 22 24 25 24 21 17 14 14 16 16 14 12 11 10 9 7 5 5 6
0 0 0 0 0 0 1 1 0 0 1 2 3 4 5 7 9 9 9 11 16 20 21 21 19 19 20 23 21 18 15 12 13 14 14 11 10 9 9 9 7 5 5 5
0 0 0 0 0 1 2 2 1 1 1 1 2 3 4 7 11 10 9 11 14 18 20 20 19 18 18 19 17 13 11 11 12 14 13 10 8 8 7 7 6 5 4 4
0 0 0 0 0 1 1 1 2 2 1 1 1 2 4 9 11 10 10 11 11 12 15 17 17 16 15 13 11 9 10 10 12 14 13 10 8 7 6 5 5 5 4 4
0 0 0 0 0 0 0 0 1 2 1 1 1 2 6 11 12 9 8 10 9 8 10 12 12 11 10 9 8 8 9 10 12 13 13 11 9 7 4 4 5 5 5 6
0 0 0 0 0 0 0 0 0 0 1 2 3 4 7 11 12 8 7 8 8 6 6 7 7 7 7 6 8 8 9 10 12 14 14 12 9 6 4 4 6 7 7 7
0 0 0 0 0 0 0 0 0 0 1 2 4 5 6 8 9 7 6 8 7 6 5 6 7 7 7 6 7 8 8 9 11 13 14 12 9 6 4 5 7 8 8 8
0 0 0 0 0 0 0 0 0 0 0 2 3 3 2 3 4 5 8 9 8 7 7 8 9 9 7 6 6 7 7 7 8 10 11 9 7 4 3 4 6 9 10 11
0 0 0 0 0 0 0 0 0 0 0 0 1 1 0 1 3 6 9 10 10 10 9 9 10 9 7 6 6 6 5 5 6 7 8 7 5 3 3 3 5 8 11 13
0 0 0 0 0 0 0 0 0 0 0 0 0 0 2 3 5 7 9 11 12 11 10 10 10 9 8 7 6 6 4 4 5 6 6 5 3 3 3 3 4 7 10 11
0 0 0 0 0 0 1 0 0 1 1 1 0 2 4 6 6 7 8 10 11 11 10 11 10 10 8 7 6 6 4 4 4 4 4 3 2 2 2 2 3 3 5 6
0 0 0 0 0 1 2 1 1 2 2 2 2 3 5 6 6 7 8 9 9 9 10 11 11 9 7 6 6 4 3 2 3 3 2 1 1 1 1 1 1 1 1 1
0 0 0 0 0 1 2 2 2 3 3 3 3 4 6 6 6 7 8 8 8 8 8 10 10 8 7 6 5 3 1 1 3 2 1 1 0 0 0 0 0 0 0 0
Wind_Speed
2 2 5 8 8 7 5 4 6 8 6 2 4 5 6 6 7 8 9 10 10 10 8 8 9 9 8 7 7 6 6 5 5 4 3 3 2 1 1 1 2 3 3 3
3 6 12 8 6 5 5 5 7 8 5 2 2 4 5 6 9 11 12 11 11 9 7 8 8 9 8 8 7 6 6 6 5 4 3 3 3 2 2 1 1 2 3 3
8 10 7 6 7 7 7 7 7 6 4 1 3 3 3 3 4 7 10 11 12 14 13 11 10 9 9 8 8 7 6 6 5 5 3 3 2 2 1 1 1 1 2 3
7 9 6 6 7 7 8 8 7 5 1 2 2 2 6 4 4 7 8 9 11 12 12 12 12 11 10 9 8 7 7 6 5 5 5 5 4 3 3 2 1 1 2 2
7 5 5 7 9 7 8 5 2 2 2 0 1 2 7 2 5 7 9 11 11 11 13 13 13 12 11 9 8 7 6 5 5 5 5 5 3 3 2 2 2 1 1 1
8 6 5 7 7 6 4 3 4 4 4 1 4 3 6 5 8 7 8 10 11 11 11 11 10 10 8 8 7 7 6 5 5 5 5 5 5 4 4 3 2 1 1 1
6 7 5 3 2 2 4 6 3 4 3 5 4 2 8 8 6 8 10 10 11 11 11 11 11 10 10 10 9 8 8 6 5 5 5 5 5 5 5 4 4 3 1 1
2 7 5 2 5 5 4 9 8 5 5 5 3 4 6 4 4 6 7 7 7 7 9 11 11 10 10 10 10 9 8 7 6 6 5 4 4 3 3 3 3 3 3 2
4 6 5 4 3 6 3 3 7 7 3 2 4 4 5 2 3 3 4 6 7 8 9 10 9 9 9 9 9 10 9 7 6 6 5 4 4 3 3 3 3 2 2 2
4 4 5 4 2 1 6 6 5 5 4 3 4 3 5 3 2 2 4 5 5 7 8 9 9 9 8 8 7 7 8 8 7 6 5 5 4 4 4 3 3 3 2 2
3 3 4 3 1 2 1 2 4 4 5 5 3 7 6 8 7 6 5 6 6 6 7 8 8 8 7 7 7 6 6 5 5 6 5 5 4 4 4 3 3 3 2 3
2 4 2 4 4 2 3 4 6 5 3 4 4 7 5 6 7 7 6 5 5 6 7 6 6 7 7 7 6 6 6 5 5 5 5 5 4 4 4 3 3 3 2 2
2 5 2 6 6 5 2 1 2 4 4 4 4 6 2 4 5 4 5 6 6 6 6 5 5 6 6 6 5 5 5 5 5 5 5 5 4 4 4 4 3 3 2 2
4 4 6 7 6 3 2 3 1 4 3 3 6 5 1 3 4 4 5 6 6 7 7 6 5 4 5 5 5 5 4 4 5 4 4 4 5 5 4 4 3 3 3 3
5 2 2 3 3 2 3 4 3 4 6 6 6 6 5 5 6 6 6 6 6 6 6 6 4 3 3 4 4 4 4 4 4 4 4 4 4 4 4 4 4 3 3 3
4 2 1 2 2 2 5 6 5 4 3 4 4 2 2 3 4 6 7 7 6 5 5 4 4 4 4 4 4 3 3 3 4 4 5 4 4 4 4 4 4 3 3 2
1 3 2 3 4 3 4 5 3 2 1 4 4 4 4 5 5 6 7 6 6 4 4 3 4 4 4 4 4 3 3 3 3 3 4 4 5 5 4 5 4 4 4 3
4 3 3 1 2 3 6 3 2 5 4 3 3 3 5 6 5 3 4 7 6 4 4 3 2 2 2 2 2 3 3 4 3 3 3 4 4 5 4 4 4 4 4 4
5 6 4 2 1 4 4 3 1 2 2 1 4 4 5 6 6 4 2 3 5 4 4 4 3 3 3 2 2 3 2 3 3 3 3 4 5 5 4 5 5 4 4 4
4 5 5 3 2 4 5 6 2 4 1 2 3 4 5 4 4 2 1 3 4 3 3 4 3 3 3 2 2 3 2 2 2 3 3 3 4 5 6 6 5 3 3 4
2 3 2 3 3 4 4 6 2 3 4 2 2 4 3 3 4 5 4 4 4 3 3 3 4 3 2 1 2 3 2 1 2 2 2 2 2 4 5 4 4 3 3 4
3 2 2 2 2 5 5 3 2 4 3 1 2 2 2 4 5 5 5 4 4 3 3 3 3 2 1 1 2 2 1 1 1 1 1 1 1 2 3 4 3 3 3 3
2 5 4 5 6 5 2 2 2 2 2 1 2 2 5 6 5 4 3 3 3 3 3 2 3 2 1 1 2 2 1 0 1 1 1 1 1 1 2 3 3 3 3 3
3 0 2 1 3 1 0 1 2 1 1 1 3 4 5 5 5 4 4 3 2 2 2 2 3 3 1 0 1 1 1 1 2 2 1 1 1 1 1 1 2 2 2 2
3 2 1 1 2 2 2 1 1 2 2 2 3 3 5 6 5 5 4 3 3 2 1 2 3 3 2 1 1 0 1 2 2 1 1 1 1 1 1 1 1 1 2 3
2 2 2 3 4 2 3 3 1 2 1 1 3 3 3 5 5 5 4 3 3 3 2 2 2 2 2 2 1 0 0 2 2 1 1 1 1 1 1 2 2 4 2 1
Wind_Direction
229 118 226 227 210 206 212 239 263 264 262 220 207 205 204 187 170 171 169 168 166 169 161 152 149 149 144 140 137 142 141 146 141 137 138 138 147 148 142 152 151 156 158 151
7 246 234 231 227 218 230 240 260 278 275 210 210 234 214 187 180 178 173 171 170 157 150 153 152 154 153 152 147 149 151 153 152 154 156 157 155 157 156 149 139 156 156 162
210 241 238 224 238 231 246 223 228 246 295 355 107 322 264 234 183 181 176 174 171 165 164 165 161 161 158 159 159 157 159 156 157 152 133 114 91 77 78 98 143 175 160 164
237 249 253 236 236 212 245 233 211 220 199 272 141 242 271 224 199 188 183 179 181 171 169 170 167 166 169 171 163 155 155 154 153 144 141 146 151 167 192 183 179 182 169 166
249 249 248 243 236 214 223 224 195 194 154 304 340 159 270 243 217 211 194 186 181 176 173 174 173 171 170 168 161 156 152 151 150 144 150 153 157 171 160 136 139 166 183 176
251 263 234 232 241 214 178 69 29 41 69 300 248 178 262 232 215 204 198 189 179 172 167 171 169 160 160 158 151 148 151 155 155 150 148 153 155 154 147 151 159 175 193 195
293 290 271 249 268 294 103 94 37 1 3 255 249 192 241 242 215 189 189 189 180 174 164 162 161 162 165 161 160 158 160 161 159 151 153 161 159 157 165 173 175 171 177 205
229 283 267 235 186 197 186 142 157 187 216 266 289 229 254 256 209 174 169 163 165 170 164 164 166 166 165 165 163 163 165 165 164 159 160 161 156 157 172 180 178 181 189 201
195 252 271 247 204 158 157 168 171 145 182 242 268 277 308 8 66 123 154 150 167 172 167 164 161 162 163 164 166 168 165 161 163 163 158 158 157 160 170 173 171 178 187 190
173 244 281 289 48 94 158 157 101 115 157 246 271 246 236 232 183 155 152 153 175 173 166 163 163 166 164 162 161 163 165 166 166 166 170 170 173 171 166 157 161 173 185 183
160 180 297 346 161 199 106 101 108 128 160 165 239 262 226 193 188 184 195 169 158 159 160 160 161 160 155 150 152 157 161 160 165 172 172 168 174 170 163 166 175 178 183 182
176 132 251 271 267 183 147 163 139 149 218 172 179 261 279 177 170 167 170 159 145 142 139 142 143 143 142 147 153 161 164 165 171 174 172 175 175 167 166 177 186 180 183 192
129 110 61 340 344 7 61 145 144 141 137 162 176 258 327 111 120 143 152 140 128 121 120 122 121 137 147 150 155 161 165 170 174 172 169 171 171 167 175 185 187 183 186 199
113 111 156 197 224 233 274 285 184 123 155 211 211 216 278 128 135 148 148 140 129 129 129 129 134 148 153 158 159 160 169 172 174 172 168 171 177 179 181 183 181 183 185 194
88 121 200 218 230 241 269 273 248 200 194 197 212 190 205 186 164 148 133 128 128 130 130 137 145 149 151 151 157 161 170 172 169 166 170 181 180 177 176 179 181 181 183 196
71 114 43 317 301 329 311 293 258 230 195 175 157 213 216 133 114 118 128 130 129 136 146 147 144 149 159 164 165 162 168 167 155 162 177 179 173 174 180 186 182 184 190 198
85 112 78 291 302 357 296 283 242 165 145 162 179 205 134 114 129 143 142 133 132 143 145 147 151 168 174 178 164 167 169 153 151 164 175 178 179 183 191 189 182 192 197 191
145 121 125 234 15 239 244 290 62 97 61 72 106 135 133 142 127 106 135 138 138 140 143 140 151 165 151 143 144 157 153 147 160 173 183 187 186 190 192 186 187 199 198 190
149 141 131 133 198 266 304 337 24 105 30 38 112 112 108 111 83 45 40 117 135 140 145 137 138 134 118 123 130 118 136 151 158 176 193 195 191 191 191 193 196 196 190 190
74 108 122 139 169 232 266 293 290 99 8 317 118 136 143 116 117 215 170 116 110 117 135 133 123 102 99 107 109 106 120 139 189 207 206 198 192 191 193 194 191 187 180 186
31 56 122 170 202 249 275 300 10 123 226 266 143 154 160 167 182 172 148 124 124 130 132 127 121 116 139 139 117 118 134 198 231 226 204 189 190 188 182 177 174 168 167 164
157 142 184 150 183 252 301 14 108 209 211 165 148 158 136 125 122 132 128 129 134 125 116 124 125 132 151 129 113 107 158 249 258 137 119 136 161 175 159 155 163 164 162 161
174 180 182 187 212 236 258 178 216 158 142 149 135 135 131 129 138 139 134 145 152 147 145 149 143 136 122 112 127 141 236 223 96 86 92 120 123 142 143 147 160 158 160 172
302 29 125 239 272 275 26 65 34 45 94 164 133 136 139 139 148 143 141 151 160 160 155 147 135 131 131 148 133 183 199 125 108 101 90 106 125 122 101 120 144 155 171 180
277 324 22 263 289 355 2 39 68 40 46 103 125 134 148 144 149 150 149 160 172 167 159 144 149 161 170 157 153 197 140 113 109 115 112 109 127 140 100 88 119 171 196 198
254 205 184 229 238 213 255 268 148 98 71 139 136 125 141 150 149 145 151 162 164 160 158 152 149 162 177 164 177 236 154 128 122 112 106 113 114 114 111 99 41 22 39 61